Regional Weather Roundup
Issued by NWS Goodland, KS

Home | Current Version | Previous Version | Graphics & Text | Print | Product List | Glossary On
Versions: 1 2 3 4 5 6 7 8 9 10 11 12 13 14 15 16 17 18 19 20 21 22 23 24 25 26 27 28 29 30 31 32 33 34 35 36 37 38 39 40 41 42 43 44 45 46 47 48 49 50
000
ASUS43 KGLD 221859
RWRGLD

GOODLAND FORECAST AREA HOURLY WEATHER ROUNDUP
NATIONAL WEATHER SERVICE GOODLAND KS
1200 PM MST SAT NOV 22 2014

...OFFICIAL OBSERVATIONS...

CITY           SKY/WX    TMP DP  RH WIND       PRES   REMARKS
GOODLAND KS    MOSUNNY   67  15  13 SW23G29   29.66F
HILL CITY KS   SUNNY     64  29  26 S9        29.69F
IMPERIAL NEB   PTSUNNY   65  15  14 SW14      29.63F
MCCOOK NEB     MOSUNNY   70  20  15 SW17G26   29.64F
AKRON CO       MOSUNNY   62  11  13 SW13      29.63F
BURLINGTON CO  SUNNY     63  16  16 SW22      29.67F
LIMON CO       SUNNY     61   5  10 W10       29.68F
$$

...UNOFFICIAL OBSERVATIONS...

CITY           SKY/WX    TMP DP  RH WIND       PRES   REMARKS
COLBY KS       SUNNY     66  30  26 S14G23    29.68F
GOVE KS          N/A     62  32  32 MISG        N/A
NORTON KS      SUNNY     61  25  25 SE10      29.68F
SHARON SPRINGS   N/A     63  25  23 SW15        N/A
TRIBUNE KS     SUNNY     64  34  32 SW21      29.73F
TRENTON NEB      N/A     71  32  23 SW15        N/A
YUMA CO          N/A     63  10  12 W10         N/A
$$



USA.gov is the U.S. government's official web portal to all federal, state and local government web resources and services.